Total_Precipitation_Accumulation
0.41 0.33 0.37 0.41 0.36 0.36 0.53 0.57 0.47 0.28 0.25 0.27 0.26 0.26 0.28 0.28 0.28 0.28 0.28 0.31 0.36 0.41 0.45 0.51 0.58 0.67 0.71 0.74 0.75 0.76 0.86 0.92 0.96 0.98 1.03 1.06 1.04 1.17 1.35 1.30 1.16 1.08 1.04 1.08
0.35 0.27 0.30 0.32 0.27 0.29 0.33 0.33 0.31 0.22 0.24 0.26 0.24 0.20 0.22 0.25 0.28 0.31 0.33 0.34 0.35 0.40 0.44 0.51 0.58 0.68 0.78 0.78 0.75 0.71 0.76 0.85 0.91 0.98 1.10 1.10 1.02 1.07 1.20 1.28 1.22 1.11 1.04 1.03
0.51 0.27 0.45 0.50 0.36 0.34 0.35 0.34 0.34 0.38 0.33 0.25 0.25 0.25 0.28 0.31 0.31 0.34 0.36 0.38 0.38 0.41 0.46 0.53 0.58 0.67 0.78 0.80 0.78 0.74 0.73 0.79 0.85 0.89 1.04 1.09 1.06 1.10 1.15 1.21 1.28 1.27 1.12 1.02
0.84 0.62 0.88 0.46 0.25 0.28 0.32 0.36 0.38 0.37 0.30 0.29 0.31 0.29 0.29 0.34 0.38 0.38 0.37 0.38 0.39 0.43 0.49 0.50 0.55 0.60 0.69 0.74 0.73 0.75 0.76 0.80 0.85 0.84 0.88 1.02 1.10 1.10 1.13 1.16 1.19 1.24 1.20 1.11
1.29 0.93 0.53 0.25 0.21 0.28 0.37 0.41 0.34 0.30 0.27 0.24 0.23 0.21 0.22 0.22 0.28 0.36 0.36 0.37 0.40 0.44 0.48 0.48 0.49 0.53 0.64 0.71 0.69 0.74 0.82 0.83 0.82 0.78 0.80 0.89 0.99 1.08 1.12 1.13 1.09 1.11 1.12 1.11
1.47 1.13 0.54 0.33 0.21 0.19 0.30 0.51 0.31 0.26 0.28 0.26 0.25 0.33 0.26 0.19 0.24 0.32 0.30 0.32 0.37 0.42 0.41 0.43 0.47 0.50 0.62 0.69 0.65 0.71 0.77 0.83 0.77 0.69 0.66 0.68 0.78 0.97 1.08 1.08 1.03 1.04 1.04 1.05
1.26 1.03 0.46 0.31 0.22 0.22 0.47 0.57 0.29 0.25 0.28 0.28 0.32 0.39 0.30 0.24 0.28 0.31 0.26 0.27 0.32 0.36 0.38 0.45 0.49 0.49 0.57 0.67 0.71 0.72 0.75 0.81 0.73 0.67 0.66 0.66 0.71 0.87 1.01 1.08 1.07 1.02 0.98 0.98
0.95 1.08 0.59 0.30 0.31 0.49 0.56 0.32 0.23 0.20 0.21 0.23 0.23 0.21 0.21 0.23 0.27 0.29 0.24 0.23 0.24 0.30 0.35 0.42 0.47 0.50 0.57 0.66 0.71 0.76 0.77 0.74 0.73 0.72 0.69 0.71 0.74 0.85 0.99 1.07 1.11 1.07 0.98 0.95
0.71 0.62 0.43 0.35 0.44 0.45 0.35 0.26 0.19 0.20 0.19 0.18 0.19 0.19 0.21 0.24 0.26 0.28 0.25 0.24 0.25 0.29 0.32 0.39 0.45 0.50 0.60 0.67 0.65 0.70 0.73 0.73 0.72 0.74 0.72 0.74 0.79 0.87 0.99 1.06 1.09 1.08 1.00 0.92
0.52 0.35 0.28 0.30 0.31 0.30 0.25 0.22 0.19 0.19 0.19 0.18 0.18 0.18 0.21 0.23 0.24 0.25 0.25 0.25 0.26 0.29 0.32 0.41 0.46 0.49 0.57 0.63 0.60 0.58 0.62 0.67 0.66 0.71 0.76 0.80 0.83 0.87 0.95 1.05 1.11 1.03 0.97 0.89
0.46 0.28 0.24 0.24 0.24 0.25 0.22 0.19 0.18 0.18 0.19 0.19 0.19 0.19 0.21 0.23 0.23 0.24 0.28 0.28 0.29 0.31 0.34 0.42 0.48 0.54 0.59 0.58 0.55 0.54 0.55 0.64 0.69 0.73 0.79 0.82 0.85 0.90 0.97 0.99 1.12 1.09 0.96 0.90
0.43 0.28 0.32 0.29 0.24 0.23 0.22 0.22 0.22 0.22 0.21 0.18 0.20 0.24 0.22 0.23 0.25 0.27 0.31 0.33 0.32 0.33 0.36 0.43 0.49 0.59 0.61 0.55 0.53 0.55 0.58 0.63 0.70 0.75 0.77 0.77 0.76 0.82 0.96 1.00 1.04 1.02 0.96 0.94
0.26 0.24 0.25 0.24 0.21 0.21 0.21 0.21 0.21 0.22 0.23 0.21 0.20 0.23 0.26 0.26 0.26 0.28 0.31 0.34 0.38 0.39 0.43 0.46 0.50 0.58 0.60 0.55 0.51 0.53 0.59 0.62 0.67 0.74 0.72 0.69 0.67 0.68 0.76 0.91 1.02 1.01 0.98 0.93
0.14 0.18 0.20 0.18 0.17 0.16 0.16 0.17 0.17 0.18 0.18 0.19 0.19 0.20 0.24 0.25 0.24 0.26 0.31 0.37 0.42 0.42 0.44 0.47 0.50 0.56 0.58 0.51 0.49 0.50 0.54 0.62 0.66 0.68 0.70 0.68 0.67 0.66 0.69 0.77 0.88 0.94 0.98 0.94
0.09 0.12 0.15 0.13 0.12 0.11 0.12 0.14 0.14 0.15 0.15 0.14 0.16 0.19 0.22 0.25 0.27 0.29 0.33 0.39 0.43 0.43 0.45 0.49 0.53 0.60 0.58 0.51 0.48 0.49 0.54 0.58 0.58 0.63 0.67 0.69 0.69 0.71 0.74 0.77 0.81 0.84 0.90 1.02
0.10 0.11 0.12 0.12 0.12 0.12 0.13 0.14 0.14 0.14 0.14 0.15 0.15 0.17 0.19 0.24 0.29 0.35 0.39 0.42 0.45 0.47 0.49 0.52 0.55 0.60 0.57 0.50 0.48 0.49 0.55 0.65 0.63 0.64 0.68 0.70 0.72 0.77 0.82 0.85 0.86 0.85 0.87 0.97
0.17 0.15 0.14 0.13 0.12 0.12 0.14 0.15 0.15 0.15 0.15 0.16 0.16 0.16 0.17 0.21 0.26 0.32 0.37 0.43 0.48 0.50 0.50 0.51 0.55 0.57 0.56 0.53 0.51 0.50 0.53 0.60 0.67 0.66 0.65 0.68 0.73 0.78 0.83 0.89 0.91 0.85 0.81 0.91
0.20 0.19 0.16 0.15 0.14 0.13 0.13 0.13 0.14 0.16 0.18 0.18 0.18 0.19 0.20 0.23 0.28 0.33 0.39 0.42 0.44 0.49 0.52 0.53 0.55 0.57 0.57 0.59 0.56 0.54 0.55 0.58 0.60 0.61 0.64 0.69 0.75 0.79 0.85 0.90 0.90 0.87 0.86 0.93
0.16 0.15 0.13 0.13 0.13 0.12 0.13 0.14 0.15 0.16 0.18 0.18 0.20 0.21 0.23 0.26 0.30 0.36 0.42 0.42 0.42 0.46 0.52 0.54 0.59 0.56 0.57 0.62 0.62 0.58 0.59 0.62 0.64 0.62 0.63 0.76 0.81 0.79 0.83 0.88 0.91 0.90 0.92 0.94
0.15 0.14 0.12 0.11 0.11 0.12 0.14 0.15 0.15 0.15 0.15 0.17 0.20 0.21 0.23 0.27 0.32 0.37 0.41 0.42 0.45 0.49 0.50 0.54 0.55 0.53 0.54 0.62 0.67 0.62 0.65 0.68 0.68 0.65 0.65 0.72 0.78 0.81 0.84 0.87 0.90 0.92 0.93 0.93
0.15 0.13 0.12 0.12 0.12 0.12 0.14 0.15 0.16 0.15 0.16 0.18 0.22 0.26 0.29 0.33 0.35 0.38 0.39 0.38 0.40 0.43 0.46 0.51 0.50 0.50 0.52 0.64 0.72 0.68 0.68 0.69 0.70 0.69 0.69 0.72 0.77 0.81 0.83 0.84 0.87 0.89 0.91 0.93
0.16 0.16 0.15 0.13 0.14 0.15 0.17 0.17 0.19 0.19 0.18 0.20 0.23 0.28 0.31 0.34 0.34 0.36 0.36 0.37 0.39 0.44 0.45 0.43 0.44 0.51 0.59 0.67 0.69 0.68 0.67 0.68 0.70 0.73 0.75 0.75 0.81 0.86 0.84 0.83 0.88 0.88 0.89 0.92
0.18 0.17 0.18 0.19 0.20 0.21 0.19 0.18 0.21 0.22 0.22 0.22 0.25 0.29 0.33 0.35 0.35 0.36 0.38 0.38 0.41 0.48 0.47 0.46 0.51 0.59 0.68 0.65 0.63 0.65 0.66 0.68 0.70 0.74 0.78 0.81 0.83 0.87 0.89 0.88 0.88 0.90 0.93 0.95
0.21 0.20 0.21 0.22 0.23 0.23 0.22 0.21 0.22 0.25 0.27 0.28 0.28 0.31 0.35 0.37 0.36 0.35 0.39 0.45 0.49 0.53 0.50 0.54 0.61 0.65 0.70 0.64 0.62 0.64 0.69 0.73 0.75 0.79 0.83 0.86 0.88 0.90 0.90 0.89 0.90 0.89 0.91 0.93
0.24 0.23 0.23 0.23 0.25 0.27 0.28 0.26 0.25 0.27 0.28 0.30 0.31 0.32 0.37 0.41 0.45 0.44 0.44 0.48 0.54 0.58 0.57 0.61 0.66 0.68 0.66 0.66 0.66 0.69 0.75 0.79 0.86 0.95 0.97 0.93 0.91 0.92 0.88 0.85 0.88 0.92 0.92 0.90
0.29 0.29 0.30 0.30 0.31 0.32 0.32 0.32 0.31 0.30 0.29 0.32 0.35 0.37 0.42 0.46 0.48 0.49 0.50 0.52 0.56 0.60 0.61 0.61 0.64 0.68 0.69 0.74 0.77 0.79 0.85 0.89 0.93 0.92 0.88 0.86 0.86 0.86 0.83 0.81 0.83 0.87 0.88 0.87
0.34 0.34 0.34 0.36 0.37 0.37 0.38 0.39 0.40 0.40 0.38 0.41 0.45 0.45 0.47 0.51 0.55 0.57 0.57 0.58 0.60 0.62 0.64 0.66 0.69 0.73 0.79 0.82 0.86 0.89 0.92 0.92 0.92 0.91 0.87 0.87 0.86 0.83 0.81 0.81 0.83 0.84 0.83 0.80